Location: Feydey
(46.3431°N, 7.0106°E)
Time: 21:52:25
(UTC+00:00)

Cosmos 1844 Rocket - Pass Details

Date: 20 June 2021
Orbit: 823 x 846 km, 71.0° (Epoch: 23 July)

Event Time Altitude Azimuth Distance (km) Brightness Sun altitude
Rises 21:09:48 0° 327° (NNW) 3,413 8.0 -13.0°
Reaches altitude 10° 21:12:24 10° 319° (NW) 2,475 6.6 -13.2°
Maximum altitude 21:17:33 37° 254° (WSW) 1,296 3.8 -13.7°
Enters shadow 21:22:24 11° 190° (S) 2,363 4.6 -14.1°
